Flag for Brazil Weather past 2 weeks in Florianópolis, Santa Catarina, Brazil

Now
75 °F

Passing clouds.


Feels Like: 77 °F
Forecast: N/A
Wind: No wind

Location: Florianopolis Aeroporto

Current Time: Jan 31, 2015 at 9:50:05 PM

Latest Report: Jan 31, 2015 at 9:00 PM


Visibility: N/A

Pressure: 30.07 "Hg

Humidity: 69%

Dew point: 64 °F

Location of FlorianópolisLocation

Historic Weather in Florianópolis — Graph

°F

Florianópolis temperature yesterday

Maximum temperature yesterday: 75 °F (at 8:00 AM)
Minimum temperature yesterday: 68 °F (at 9:00 PM)
Average temperature yesterday: 72 °F

Past Weeks' High & Low Weather Summary

 TemperatureHumidityPressure
High95 °F (Jan 17, 3:00 PM)94% (Jan 17, 7:00 PM)30.15 "Hg (Jan 17, 7:00 PM)
Low68 °F (Jan 23, 4:00 AM)21% (Jan 17, 6:00 PM)29.68 "Hg (Jan 29, 3:00 PM)
Average78 °F75%29.93 "Hg
* Reported Jan 16 8:00 PM — Jan 31 8:00 PM, Florianópolis, Weather by CustomWeather, © 2014

Note: Actual official high and low records may vary slightly from our data, if they occured in-between our weather recording intervals... More about our weather records

Advertising

Florianópolis weather history for previous 24 hours

 ConditionsComfort  
Time TempWeatherWind HumidityBarometerVisibility
8:00 PM
Jan 31
77 °FPartly sunny.3 mph61%30.07 "HgN/A
7:00 PM79 °FBroken clouds.6 mph61%30.07 "HgN/A
6:00 PM79 °FBroken clouds.5 mph58%30.07 "HgN/A
5:00 PM77 °FBroken clouds.5 mph65%30.07 "HgN/A
4:00 PM79 °FBroken clouds.5 mph61%30.09 "HgN/A
3:00 PM77 °FBroken clouds.2 mph69%30.09 "HgN/A
2:00 PM79 °FBroken clouds.7 mph61%30.12 "HgN/A
1:00 PM77 °FBroken clouds.3 mph69%30.12 "HgN/A
12:00 PM75 °FBroken clouds.2 mph69%30.15 "HgN/A
11:00 AM75 °FPartly sunny.5 mph74%30.15 "HgN/A
10:00 AM73 °FPartly sunny.3 mph78%30.12 "HgN/A
9:00 AM72 °FPartly sunny.5 mph83%30.12 "HgN/A
8:00 AM72 °FBroken clouds.1 mph83%30.09 "HgN/A
7:00 AM72 °FPartly sunny.3 mph83%30.07 "HgN/A
6:00 AM72 °FPartly cloudy.No wind83%30.07 "HgN/A
5:00 AM70 °FPartly cloudy.No wind88%30.07 "HgN/A
4:00 AM70 °FPartly cloudy.No wind88%30.09 "HgN/A
3:00 AM70 °FPartly cloudy.2 mph88%30.12 "HgN/A
2:00 AM70 °FPartly cloudy.No wind88%30.12 "HgN/A
1:00 AM70 °FPartly cloudy.No wind88%30.12 "HgN/A
12:00 AM70 °FPartly cloudy.No wind83%30.12 "HgN/A
11:00 PM
Jan 30
70 °FPassing clouds.3 mph83%30.12 "HgN/A
10:00 PM70 °FPassing clouds.5 mph83%30.09 "Hg6 mi
9:00 PM68 °FLight rain. Passing clouds.7 mph94%30.09 "Hg4 mi
Weather by CustomWeather, © 2014

See weather overviewHow to use our weather pages